KD7KCN-5 Weather Reports


Display with metric or nautical units.
time (UTC)temp
F
wind
direction
speed
MPH
gust
MPH
rain 1hr
in
rain 24hr
in
rain mn
in
humidity
%
barometer
mb
20260509170135 75 27 10.0 22.0 0.00 0.00 0.00 20 1016.8
20260509165135 74 23 17.0 23.0 0.00 0.00 0.00 21 1016.7
20260509164135 75 36 13.0 21.0 0.00 0.00 0.00 21 1016.5
20260509162136 74 5 8.0 19.0 0.00 0.00 0.00 22 1016.6
20260509161136 74 353 10.0 21.0 0.00 0.00 0.00 22 1016.7
20260509160135 74 20 14.0 25.0 0.00 0.00 0.00 21 1016.6
20260509155135 73 21 12.0 21.0 0.00 0.00 0.00 21 1016.8
20260509154135 72 360 10.0 24.0 0.00 0.00 0.00 22 1016.8
20260509153136 72 31 8.0 17.0 0.00 0.00 0.00 23 1016.8
20260509152135 72 25 4.0 14.0 0.00 0.00 0.00 22 1016.8
20260509151135 70 335 6.0 15.0 0.00 0.00 0.00 24 1016.8
20260509150137 70 347 7.0 16.0 0.00 0.00 0.00 22 1016.8
20260509145136 70 329 6.0 15.0 0.00 0.00 0.00 23 1016.9
20260509144135 70 0 0.0 15.0 0.00 0.00 0.00 25 1016.9
20260509143136 70 353 5.0 16.0 0.00 0.00 0.00 23 1016.8
20260509142135 70 338 5.0 13.0 0.00 0.00 0.00 22 1016.8
20260509141136 70 340 6.0 14.0 0.00 0.00 0.00 24 1016.7
20260509140136 69 346 7.0 14.0 0.00 0.00 0.00 24 1016.6
20260509134136 68 349 2.0 13.0 0.00 0.00 0.00 26 1016.4
20260509133136 67 342 6.0 12.0 0.00 0.00 0.00 25 1016.3
20260509132136 67 335 1.0 11.0 0.00 0.00 0.00 25 1016.2
20260509131137 66 331 8.0 12.0 0.00 0.00 0.00 23 1016.1
20260509125136 62 334 8.0 12.0 0.00 0.00 0.00 26 1015.9
20260509124136 62 340 6.0 11.0 0.00 0.00 0.00 26 1015.8
20260509123136 62 334 5.0 11.0 0.00 0.00 0.00 25 1015.6
20260509122136 63 332 4.0 10.0 0.00 0.00 0.00 24 1015.6
20260509121136 63 331 6.0 11.0 0.00 0.00 0.00 24 1015.5
20260509120136 63 330 7.0 13.0 0.00 0.00 0.00 24 1015.6
20260509115136 63 330 7.0 13.0 0.00 0.00 0.00 23 1015.6
20260509114136 63 334 9.0 14.0 0.00 0.00 0.00 23 1015.4
20260509113138 63 334 9.0 14.0 0.00 0.00 0.00 23 1015.4
20260509112137 64 333 8.0 14.0 0.00 0.00 0.00 22 1015.4
20260509110136 65 335 9.0 14.0 0.00 0.00 0.00 21 1015.2
20260509105137 66 336 10.0 20.0 0.00 0.00 0.00 19 1015.0
20260509104139 67 335 7.0 25.0 0.00 0.00 0.00 17 1014.9
20260509103136 68 261 19.0 25.0 0.00 0.00 0.00 17 1014.6
20260509102136 69 261 19.0 24.0 0.00 0.00 0.00 17 1014.5
20260509101136 69 237 14.0 25.0 0.00 0.00 0.00 16 1014.4
20260509100136 69 254 19.0 27.0 0.00 0.00 0.00 15 1014.2
20260509095136 70 251 10.0 24.0 0.00 0.00 0.00 13 1014.3
20260509094136 70 257 15.0 25.0 0.00 0.00 0.00 13 1014.4
20260509093136 70 257 19.0 25.0 0.00 0.00 0.00 12 1014.2
20260509092136 70 254 19.0 24.0 0.00 0.00 0.00 11 1014.4
20260509091136 70 260 18.0 23.0 0.00 0.00 0.00 11 1014.4
20260509090136 70 263 14.0 23.0 0.00 0.00 0.00 11 1013.7
20260509084136 71 262 19.0 27.0 0.00 0.00 0.00 10 1013.6
20260509083136 71 262 19.0 26.0 0.00 0.00 0.00 10 1013.6
20260509082136 71 261 16.0 24.0 0.00 0.00 0.00 10 1013.6
20260509081136 72 261 15.0 23.0 0.00 0.00 0.00 10 1013.6
20260509080136 72 259 16.0 23.0 0.00 0.00 0.00 10 1013.6
20260509075136 71 263 15.0 21.0 0.00 0.00 0.00 10 1013.5
20260509074136 71 259 12.0 22.0 0.00 0.00 0.00 10 1013.6
20260509073137 72 328 17.0 23.0 0.00 0.00 0.00 10 1013.7
20260509071136 72 266 17.0 25.0 0.00 0.00 0.00 10 1013.7
20260509070136 73 260 17.0 26.0 0.00 0.00 0.00 10 1013.7
20260509065136 73 263 17.0 24.0 0.00 0.00 0.00 10 1013.8
20260509064136 73 263 15.0 23.0 0.00 0.00 0.00 10 1013.8
20260509063136 74 256 12.0 19.0 0.00 0.00 0.00 10 1013.8
20260509062136 74 253 14.0 20.0 0.00 0.00 0.00 10 1013.7
20260509061137 74 254 14.0 20.0 0.00 0.00 0.00 10 1013.8
20260509060136 74 263 12.0 17.0 0.00 0.00 0.00 10 1013.8
20260509055136 74 240 11.0 17.0 0.00 0.00 0.00 10 1013.9
20260509054137 74 261 12.0 17.0 0.00 0.00 0.00 10 1014.1
20260509053137 74 259 13.0 20.0 0.00 0.00 0.00 11 1014.1
20260509052136 73 262 12.0 19.0 0.00 0.00 0.00 11 1014.3
20260509051136 73 261 13.0 19.0 0.00 0.00 0.00 11 1014.2
20260509050136 74 260 11.0 17.0 0.00 0.00 0.00 11 1014.2
20260509045137 74 270 13.0 19.0 0.00 0.00 0.00 10 1014.3
20260509044137 75 263 13.0 17.0 0.00 0.00 0.00 10 1014.1
20260509043137 75 253 13.0 18.0 0.00 0.00 0.00 10 1014.0
20260509042137 75 255 13.0 20.0 0.00 0.00 0.00 10 1014.0
20260509041137 75 257 10.0 16.0 0.00 0.00 0.00 10 1013.9
20260509040137 75 258 9.0 15.0 0.00 0.00 0.00 10 1013.8
20260509035137 75 257 8.0 16.0 0.00 0.00 0.00 10 1013.7
20260509034137 75 255 11.0 18.0 0.00 0.00 0.00 10 1013.7
20260509033137 75 257 9.0 12.0 0.00 0.00 0.00 9 1013.6
20260509032137 75 259 9.0 15.0 0.00 0.00 0.00 10 1013.5
20260509031137 75 258 8.0 16.0 0.00 0.00 0.00 11 1013.4
20260509030137 75 264 6.0 12.0 0.00 0.00 0.00 11 1013.3
20260509025137 75 259 8.0 13.0 0.00 0.00 0.00 12 1013.2
20260509024137 75 264 8.0 11.0 0.00 0.00 0.00 11 1013.1
20260509023137 76 283 6.0 11.0 0.00 0.00 0.00 12 1013.0
20260509022137 76 287 6.0 10.0 0.00 0.00 0.00 11 1012.9
20260509020137 77 332 7.0 14.0 0.00 0.00 0.00 11 1012.8
20260509014137 80 243 5.0 10.0 0.00 0.00 0.00 10 1012.5
20260509013137 80 265 5.0 11.0 0.00 0.00 0.00 9 1012.6
20260509012137 81 275 8.0 16.0 0.00 0.00 0.00 9 1012.6
20260509011137 83 319 11.0 18.0 0.00 0.00 0.00 9 1012.5
20260509010137 83 343 9.0 15.0 0.00 0.00 0.00 9 1012.5
20260509005137 83 335 5.0 18.0 0.00 0.00 0.00 9 1012.6
20260509004137 83 343 5.0 11.0 0.00 0.00 0.00 10 1012.6
20260509003137 83 262 9.0 21.0 0.00 0.00 0.00 9 1012.7
20260509002137 85 338 8.0 21.0 0.00 0.00 0.00 10 1012.6
20260509001137 85 347 12.0 18.0 0.00 0.00 0.00 9 1012.5
20260509000137 86 16 4.0 13.0 0.00 0.00 0.00 10 1012.6
20260508235138 86 341 7.0 14.0 0.00 0.00 0.00 9 1012.7
20260508234137 85 346 1.0 10.0 0.00 0.00 0.00 10 1012.6
20260508233137 85 330 8.0 21.0 0.00 0.00 0.00 10 1012.8
20260508231138 85 349 5.0 12.0 0.00 0.00 0.00 11 1012.9
20260508230138 85 338 7.0 23.0 0.00 0.00 0.00 10 1013.1
20260508225137 85 347 10.0 19.0 0.00 0.00 0.00 11 1013.0
20260508224137 85 346 9.0 19.0 0.00 0.00 0.00 12 1013.3
20260508223137 84 340 9.0 20.0 0.00 0.00 0.00 11 1013.4
20260508222138 84 335 13.0 20.0 0.00 0.00 0.00 11 1013.5
20260508221138 84 357 11.0 22.0 0.00 0.00 0.00 12 1013.7
20260508220138 84 341 3.0 22.0 0.00 0.00 0.00 11 1013.8
20260508215137 84 352 15.0 27.0 0.00 0.00 0.00 12 1013.7
20260508214137 85 16 7.0 18.0 0.00 0.00 0.00 13 1014.0
20260508213137 84 30 2.0 12.0 0.00 0.00 0.00 13 1014.1
20260508212138 83 340 5.0 13.0 0.00 0.00 0.00 14 1014.4
20260508211139 82 347 16.0 23.0 0.00 0.00 0.00 13 1014.4
20260508210145 84 33 12.0 18.0 0.00 0.00 0.00 12 1013.9
20260508205138 84 352 14.0 21.0 0.00 0.00 0.00 12 1014.1
20260508204138 84 359 13.0 18.0 0.00 0.00 0.00 12 1014.1
20260508203138 83 236 3.0 15.0 0.00 0.00 0.00 11 1014.4
20260508202138 82 335 11.0 21.0 0.00 0.00 0.00 13 1014.6
20260508201138 81 336 5.0 17.0 0.00 0.00 0.00 13 1014.5
20260508200138 82 341 10.0 18.0 0.00 0.00 0.00 14 1014.6
20260508195138 80 310 12.0 22.0 0.00 0.00 0.00 12 1014.8
20260508194138 82 338 11.0 23.0 0.00 0.00 0.00 13 1014.9
20260508193138 82 340 11.0 20.0 0.00 0.00 0.00 14 1014.9
20260508192138 83 341 8.0 18.0 0.00 0.00 0.00 13 1015.0
20260508191138 82 319 2.0 25.0 0.00 0.00 0.00 13 1015.2
20260508190138 82 1 12.0 20.0 0.00 0.00 0.00 14 1015.2
20260508185138 82 345 12.0 24.0 0.00 0.00 0.00 13 1015.4
20260508184138 82 353 11.0 22.0 0.00 0.00 0.00 15 1015.5
20260508183138 82 341 12.0 24.0 0.00 0.00 0.00 15 1015.7
20260508182138 81 360 7.0 22.0 0.00 0.00 0.00 14 1015.8
20260508181138 81 342 15.0 22.0 0.00 0.00 0.00 14 1015.6
20260508180139 81 355 3.0 17.0 0.00 0.00 0.00 14 1015.9
20260508175138 81 343 6.0 25.0 0.00 0.00 0.00 14 1016.1
20260508174139 81 351 5.0 17.0 0.00 0.00 0.00 16 1016.1
20260508173138 80 344 5.0 17.0 0.00 0.00 0.00 16 1016.2
20260508172138 81 333 6.0 16.0 0.00 0.00 0.00 14 1016.1